VLV weather

Dr. Antonio Nicolás Briceño Airport
Valera, Trujillo, Venezuela

Public forecast

Using degrees Celsius for public forecast. Weather courtesy of forecast.io.

METAR (pilot weather report)

Report is more than 6 hours old.

Retrieved 2018/10/31 01:00 UTC (7 months ago):

SVVL 310100Z /////KT 9999 SCT016 27/23 Q1012

TAF (pilot weather forecast)

Forecast is more than 12 hours old.

Closest forecast is Barquisimeto International Airport, 83.9 nm (155.4 km) ENE. Retrieved 2019/05/20 00:34 UTC (1 day ago):

TAF SVBM 202200Z 2100/2200 09010KT 9999 FEW016 SCT070 TX33/2118Z TN22/2108Z BECMG 2107/2111 10008KT 9000 BR BKN013